Weather History for Albion, NE

Change the Weather History Date:

Saturday, March 23, 2013

  Actual Average (KOFK) Record (KOFK)
Temperature  
Mean Temperature 29 °F 40 °F  
Max Temperature 32 °F 52 °F 91 °F (1910)
Min Temperature 26 °F 29 °F 1 °F (1965)
Degree Days  
Heating Degree Days 36 25  
Month to date heating degree days 672  
Since 1 July heating degree days 5765  
Cooling Degree Days 0 0  
Month to date cooling degree days 0  
Year to date cooling degree days 0  
Moisture  
Dew Point 25 °F    
Average Humidity 82    
Maximum Humidity 87    
Minimum Humidity 75    
Precipitation  
Precipitation 0.00 in 0.06 in 1.89 in (1987)
Month to date precipitation 1.18  
Year to date precipitation 2.53  
Snow  
Snow 0.00 in 0.20 in - ()
Month to date snowfall 3.9  
Since 1 July snowfall 26.7  
Snow Depth -    
Sea Level Pressure  
Sea Level Pressure 30.07 in    
Wind  
Wind Speed 8 mph (NNE)    
Max Wind Speed 18 mph    
Max Gust Speed 28 mph    
Visibility 6 miles    
Events Snow    
T = Trace of Precipitation, MM = Missing Value Source: NWS Daily Summary

Daily Weather History Graph

Daily Weather History Graph

Search for Another Location

Airport:

Trip Planner

Search our weather history database for the weather conditions in past years. The results will help you decide how hot, cold, wet, or windy it might be!

Date:

Astronomy

Mar. 23, 2013 Rise Set
Actual Time 7:29 AM CDT 7:48 PM CDT
Civil Twilight 7:02 AM CDT 8:15 PM CDT
Nautical Twilight 6:29 AM CDT 8:48 PM CDT
Astronomical Twilight 5:56 AM CDT 9:22 PM CDT
Moon 4:13 PM CDT (3/23) 5:09 AM CDT (3/23)
Length of Visible Light 13h 13m
Length of Day
12h 18m
Waxing Gibbous, 85% of the Moon is Illuminated
Mar 23
Waxing Gibbous
Mar 27
Full
Apr 2
Last Quarter
Apr 10
New
Apr 18
First Quarter

Hourly Weather History & Observations

Time (CDT) Temp. Windchill Dew Point Humidity Pressure Visibility Wind Dir Wind Speed Gust Speed Precip Events Conditions
12:15 AM 30.0 °F 25.2 °F 25.7 °F 84% 30.00 in 10.0 mi SE 4.6 mph - N/A   Overcast
12:35 AM 29.8 °F 24.9 °F 25.7 °F 85% 30.00 in 10.0 mi ESE 4.6 mph - N/A   Overcast
12:55 AM 29.8 °F 26.3 °F 25.5 °F 84% 30.00 in 10.0 mi ESE 3.5 mph - N/A   Overcast
1:15 AM 30.0 °F - 25.0 °F 82% 30.02 in 10.0 mi Calm Calm - N/A   Overcast
1:35 AM 30.0 °F 26.5 °F 25.2 °F 82% 30.03 in 10.0 mi ENE 3.5 mph - N/A   Overcast
1:55 AM 29.8 °F 26.3 °F 24.8 °F 81% 30.03 in 10.0 mi NE 3.5 mph - N/A   Overcast
2:15 AM 29.8 °F 24.9 °F 24.8 °F 81% 30.03 in 10.0 mi NE 4.6 mph - N/A   Overcast
2:35 AM 29.8 °F 23.9 °F 24.4 °F 80% 30.02 in 10.0 mi NE 5.8 mph - N/A   Overcast
2:55 AM 29.7 °F 23.7 °F 24.8 °F 82% 30.02 in 10.0 mi NNE 5.8 mph - N/A   Overcast
3:15 AM 29.8 °F - 24.1 °F 79% 30.04 in 10.0 mi Calm Calm - N/A   Overcast
3:35 AM 29.8 °F 23.0 °F 23.9 °F 79% 30.00 in 10.0 mi NE 6.9 mph - N/A   Overcast
3:55 AM 29.7 °F 22.8 °F 23.9 °F 79% 30.01 in 10.0 mi NE 6.9 mph - N/A   Overcast
4:15 AM 29.3 °F 22.3 °F 24.3 °F 81% 30.01 in 10.0 mi NE 6.9 mph - N/A   Overcast
4:35 AM 29.3 °F 23.2 °F 24.3 °F 81% 30.02 in 10.0 mi NE 5.8 mph - N/A   Overcast
4:55 AM 29.3 °F 23.2 °F 24.3 °F 81% 30.03 in 10.0 mi NE 5.8 mph - N/A   Overcast
5:15 AM 29.3 °F 23.2 °F 24.4 °F 82% 30.04 in 7.0 mi NE 5.8 mph - N/A   Overcast
5:35 AM 29.3 °F 23.2 °F 24.4 °F 82% 30.04 in 10.0 mi NNE 5.8 mph - N/A   Overcast
5:55 AM 29.3 °F 24.3 °F 23.9 °F 80% 30.05 in 10.0 mi NNE 4.6 mph - N/A   Overcast
6:15 AM 29.3 °F 22.3 °F 23.9 °F 80% 30.05 in 10.0 mi NNE 6.9 mph - N/A   Overcast
6:35 AM 29.3 °F 22.3 °F 24.1 °F 81% 30.05 in 10.0 mi NNE 6.9 mph - N/A   Overcast
6:55 AM 29.3 °F 22.3 °F 24.1 °F 81% 30.05 in 10.0 mi NNE 6.9 mph - N/A   Overcast
7:15 AM 29.1 °F 22.1 °F 24.3 °F 82% 30.06 in 10.0 mi NNE 6.9 mph - N/A   Overcast
7:35 AM 29.1 °F 22.1 °F 24.3 °F 82% 30.06 in 7.0 mi NE 6.9 mph - N/A   Overcast
7:55 AM 29.1 °F 22.1 °F 24.3 °F 82% 30.06 in 7.0 mi NNE 6.9 mph - N/A   Overcast
8:15 AM 29.3 °F 23.2 °F 24.4 °F 82% 30.06 in 7.0 mi NNE 5.8 mph - N/A   Overcast
8:35 AM 29.5 °F 23.4 °F 24.1 °F 80% 30.08 in 10.0 mi North 5.8 mph - N/A   Overcast
8:55 AM 29.8 °F 23.0 °F 24.3 °F 80% 30.09 in 10.0 mi North 6.9 mph - N/A   Overcast
9:15 AM 30.0 °F 23.2 °F 24.3 °F 79% 30.08 in 10.0 mi North 6.9 mph - N/A   Overcast
9:35 AM 30.2 °F 23.4 °F 25.0 °F 81% 30.08 in 7.0 mi North 6.9 mph - N/A   Overcast
9:55 AM 30.4 °F 23.6 °F 25.0 °F 80% 30.08 in 10.0 mi North 6.9 mph - N/A   Overcast
10:15 AM 30.7 °F 22.6 °F 25.0 °F 79% 30.08 in 7.0 mi NNE 9.2 mph - N/A   Overcast
10:35 AM 30.7 °F 22.0 °F 24.8 °F 79% 30.08 in 10.0 mi North 10.4 mph - N/A   Overcast
10:55 AM 31.1 °F 21.9 °F 25.2 °F 79% 30.08 in 5.0 mi NNE 11.5 mph - N/A   Haze
11:15 AM 31.5 °F 22.9 °F 26.1 °F 80% 30.08 in 2.0 mi NNE 10.4 mph - N/A Snow Light Snow
11:35 AM 31.6 °F 23.7 °F 26.2 °F 80% 30.09 in 2.5 mi NNE 9.2 mph - N/A Snow Light Snow
11:55 AM 31.1 °F 23.1 °F 25.7 °F 80% 30.09 in 2.5 mi NE 9.2 mph - N/A Snow Light Snow
12:15 PM 31.5 °F 22.3 °F 25.7 °F 79% 30.09 in 5.0 mi NNE 11.5 mph - N/A   Haze
12:35 PM 32.0 °F 23.6 °F 26.2 °F 79% 30.08 in 7.0 mi NE 10.4 mph - N/A   Overcast
12:55 PM 32.0 °F 23.6 °F 26.2 °F 79% 30.08 in 5.0 mi NE 10.4 mph - N/A   Haze
1:15 PM 32.0 °F 23.6 °F 26.2 °F 79% 30.08 in 2.5 mi NNE 10.4 mph - N/A   Haze
1:35 PM 32.0 °F 23.6 °F 26.2 °F 79% 30.08 in 2.5 mi NNE 10.4 mph - N/A Snow Light Snow
1:55 PM 32.0 °F 23.0 °F 27.0 °F 82% 30.08 in 2.0 mi NNE 11.5 mph - N/A Snow Light Snow
2:15 PM 32.0 °F 23.0 °F 27.0 °F 82% 30.07 in 1.2 mi NNE 11.5 mph - N/A Snow Light Snow
2:35 PM 32.0 °F 23.6 °F 27.1 °F 82% 30.07 in 2.0 mi North 10.4 mph - N/A Snow Light Snow
2:55 PM 32.0 °F 24.2 °F 27.7 °F 84% 30.07 in 1.5 mi North 9.2 mph - N/A Snow Light Snow
3:15 PM 32.0 °F 23.6 °F 27.9 °F 85% 30.06 in 1.5 mi North 10.4 mph - N/A Snow Light Snow
3:35 PM 32.0 °F 23.0 °F 27.5 °F 83% 30.06 in 1.5 mi North 11.5 mph 16.1 mph N/A Snow Light Snow
3:55 PM 31.6 °F 21.6 °F 28.0 °F 87% 30.06 in 1.2 mi North 13.8 mph 17.3 mph N/A Snow Light Snow
4:15 PM 31.8 °F 25.4 °F 28.2 °F 87% 30.06 in 1.2 mi North 6.9 mph - N/A Snow Light Snow
4:35 PM 32.0 °F 23.0 °F 28.4 °F 87% 30.06 in 1.2 mi North 11.5 mph - N/A   Overcast
4:55 PM 31.8 °F 23.9 °F 28.0 °F 86% 30.06 in 1.5 mi North 9.2 mph - N/A Snow Light Snow
5:15 PM 31.6 °F 22.1 °F 28.0 °F 87% 30.07 in 1.5 mi North 12.7 mph - N/A Snow Light Snow
5:35 PM 31.5 °F 22.3 °F 27.9 °F 87% 30.07 in 1.8 mi North 11.5 mph - N/A Snow Light Snow
5:55 PM 31.5 °F 22.9 °F 27.7 °F 86% 30.07 in 2.5 mi North 10.4 mph - N/A Snow Light Snow
6:15 PM 31.1 °F 20.9 °F 26.6 °F 83% 30.08 in 2.5 mi North 13.8 mph - N/A Snow Light Snow
6:35 PM 30.2 °F 19.8 °F 26.6 °F 86% 30.08 in 1.8 mi NNW 13.8 mph 17.3 mph N/A Snow Light Snow
6:55 PM 30.0 °F 20.5 °F 26.2 °F 86% 30.09 in 2.0 mi NNW 11.5 mph 19.6 mph N/A Snow Light Snow
7:15 PM 29.5 °F 18.0 °F 25.5 °F 85% 30.10 in 2.5 mi North 16.1 mph 20.7 mph N/A Snow Light Snow
7:35 PM 28.9 °F 17.3 °F 24.8 °F 84% 30.10 in 2.0 mi North 16.1 mph 21.9 mph N/A Snow Light Snow
7:55 PM 28.6 °F 19.3 °F 24.8 °F 86% 30.11 in 4.0 mi NNW 10.4 mph 23.0 mph N/A Snow Light Snow
8:15 PM 27.9 °F 16.8 °F 23.7 °F 84% 30.11 in 7.0 mi NNW 13.8 mph 24.2 mph N/A   Overcast
8:35 PM 27.5 °F 16.8 °F 23.5 °F 85% 30.11 in 5.0 mi North 12.7 mph 21.9 mph N/A   Overcast
8:55 PM 27.3 °F 15.2 °F 23.0 °F 84% 30.11 in 7.0 mi North 16.1 mph 24.2 mph N/A Snow Light Snow
9:15 PM 27.0 °F 14.3 °F 22.8 °F 84% 30.11 in 7.0 mi North 17.3 mph 25.3 mph N/A   Overcast
9:35 PM 27.0 °F 14.7 °F 22.6 °F 84% 30.12 in 7.0 mi North 16.1 mph 23.0 mph N/A   Overcast
9:55 PM 27.0 °F 13.9 °F 22.5 °F 83% 30.12 in 5.0 mi North 18.4 mph 25.3 mph N/A   Overcast
10:15 PM 27.0 °F 14.3 °F 22.5 °F 83% 30.12 in 4.0 mi NNW 17.3 mph 23.0 mph N/A Snow Light Snow
10:35 PM 26.6 °F 13.8 °F 22.5 °F 84% 30.12 in 3.0 mi North 17.3 mph 21.9 mph N/A Snow Light Snow
10:55 PM 26.6 °F 14.3 °F 21.7 °F 82% 30.12 in 4.0 mi North 16.1 mph 21.9 mph N/A Snow Light Snow
11:15 PM 27.0 °F 14.3 °F 21.0 °F 78% 30.12 in 7.0 mi North 17.3 mph 23.0 mph N/A   Overcast
11:35 PM 26.2 °F 13.0 °F 20.5 °F 79% 30.12 in 5.0 mi North 18.4 mph 26.5 mph N/A Snow Light Snow
11:55 PM 26.1 °F 15.0 °F 19.0 °F 75% 30.13 in 7.0 mi North 12.7 mph 27.6 mph N/A Snow Light Snow